Вернуться в каталог

AEROCUBE 8C

АктивенНаукаPO
NORAD 41853·PAYLOAD·🇺🇸 United States

Запущен Nov 11, 2016 с Vandenberg Space Force Base

Loading…

Ближайшие Пролёты (ближайшие 24 часа)

TLE

СвежийSource: Space-Track

Эпоха: Sep 14, 2026, 14:25 UTC

1 41853U 16067F   26257.60132483  .00006229  00000-0  24720-3 0  9997
2 41853  98.0397 131.6973 0006583 105.6881 254.5082 15.25748434539691

Отслеживайте AEROCUBE 8C в реальном времени с AllMySat

Download on the App Store